STARLINK-34072, 64101

Orbit data source: Space-Track

STARLINK-34072, 64101 is a payload satellite owned by SpaceX/Seattle (US) in LEO that was launched on Fri, 23 May 2025 UTC via an FALCON 9 launch vehicle from the Air Force Western Test Range (AFWTR). Payload-class satellites include a variety of spacecraft equipped with specific instruments for various scientific and technological missions. These include communications satellites like Starlink; space stations such as the ISS; scientific satellites like the Hubble; Earth observation satellites from companies like Planet Labs, Umbra, and HawkEye 360; GPS; miniature CubeSats for education and research; and military/defense satellites.

Loading next visibility...
Identifier
64101, 2025-110F
Orbit
LEO
Country
Flag of USUS
Related business
Manufacturer
SpaceX/Seattle
Mission
Operational Commercial Communications
Bus & Motor
STARLINK V2MO, Unknown motor
Mass
575 kg wet, ~530 kg dry
Launch date (UTC)
2025-05-23 (1 year ago)
Launch vehicle
FALCON 9
Launch site
Air Force Western Test Range (AFWTR)
Object type
Payload
Rocket body
Debris
Shape & HBR
Box + 2 Pan, 17.7 m
Radar Cross Section
36.964 m², Large (>1 m²)

Expand to show TLE details & history
Last TLE update: 1 day ago

TLE from 1 day ago
0 STARLINK-34072
1 64101U 25110F   26170.55121512  .00015614  00000-0  51365-3 0  9999
2 64101  53.1594 273.2287 0001784  88.6029 271.5177 15.31713690 61480
Epoch: 2026-06-19T13:13Z
TLE epoch observation values (Epoch: 2026-06-19T13:13:44.986Z)
Latitude
Longitude
167.01269°
Altitude
471.567 km
Speed
7.631 km/s
True Right ascension
18h 12m 54s
True Declination
0° 00' 00"
Sunlit
Object was in full shadow at epoch
Visualization orbit readout
Latitude
Unknown
Longitude
Unknown
Altitude
Unknown
Speed
Unknown
Apparent Right ascension
Unknown
Apparent Declination
Unknown
Sunlit
N/A
Visualization observer readout
Local Sidereal Time
08:32:42
Azimuth
Unknown
Elevation
Unknown
Doppler factor
Unknown
Orbital elements
Apogee altitude
472.178 km
Perigee altitude
469.734 km
Semi-major axis
6,849.093 km
Eccentricity
0.00018
Inclination
53.1594°
RAAN
273.2287°
Arg. of periapsis
88.6029°
True anomaly
271.49726°
Mean anomaly
271.5177°
Eccentric anomaly
271.50748°
Mean motion
3.82907 °/min
Orbital period
94.02 mins
BSTAR
0.00051365
Loading maneuver chart data...
Computing Atmospheric mass density...
Loading historical data...
Loading historical data...
Loading historical data...
Loading historical data...
Loading historical data...
Loading historical data...
Loading historical data...

Documentation

Showing up to 5 results
|